Location: Unspecified
(0.0000°N, 0.0000°E)
Time: 06:20:19
(UTC+00:00)

Explorer 11/Cluster Stage 4 - Pass Details

Date: 21 September 2019
Orbit: 467 x 1259 km, 28.8° (Epoch: 14 October)

Event Time Altitude Azimuth Distance (km) Brightness Sun altitude
Exits shadow 04:33:29 14° 350° (N) 1,407 7.8 -19.9°
Maximum altitude 04:35:30 20° 31° (NNE) 1,145 7.8 -19.4°
Drops below altitude 10° 04:38:24 10° 80° (E) 1,709 9.6 -18.7°
Sets 04:41:12 0° 97° (E) 2,693 11.0 -18.0°
